Weather History for KBVO, Oklahoma

Change the Weather History Date:

Thursday, February 10, 2011

  Actual Average Record
Temperature  
Mean Temperature 0 °F -  
Max Temperature 28 °F - - ()
Min Temperature -27 °F - - ()
Degree Days  
Heating Degree Days 64    
Moisture  
Dew Point -12 °F    
Average Humidity 67    
Maximum Humidity 87    
Minimum Humidity 30    
Precipitation  
Precipitation - - - ()
Sea Level Pressure  
Sea Level Pressure 30.35 in    
Wind  
Wind Speed 1 mph (South)    
Max Wind Speed 8 mph    
Max Gust Speed -    
Visibility 9 miles    
Events      
T = Trace of Precipitation, MM = Missing Value Source: NWS Daily Summary

Daily Weather History Graph

Daily Weather History Graph

Search for Another Location

Airport:

Trip Planner

Search our weather history database for the weather conditions in past years. The results will help you decide how hot, cold, wet, or windy it might be!

Date:

Astronomy

Feb. 10, 2011 Rise Set
Actual Time 7:18 AM CST 5:59 PM CST
Civil Twilight 6:51 AM CST 6:25 PM CST
Nautical Twilight 6:20 AM CST 6:56 PM CST
Astronomical Twilight 5:50 AM CST 7:26 PM CST
Moon 10:44 AM CST (2/10) 12:24 AM CST (2/10)
Length of Visible Light 11h 34m
Length of Day
10h 41m
Waxing Crescent, 45% of the Moon is Illuminated
Feb 10
Waxing Crescent
Feb 11
First Quarter
Feb 18
Full
Feb 24
Last Quarter
Mar 4
New

Hourly Weather History & Observations

Time (CST) Temp. Windchill Dew Point Humidity Pressure Visibility Wind Dir Wind Speed Gust Speed Precip Events Conditions
12:53 AM -13.0 °F - -18.0 °F 78% 30.47 in 10.0 mi Calm Calm - N/A   Clear
1:53 AM -18.0 °F - -22.0 °F 82% 30.46 in 10.0 mi Calm Calm - N/A   Clear
2:53 AM -20.9 °F - -27.0 °F 73% 30.43 in 10.0 mi Calm Calm - N/A   Clear
4:53 AM -24.0 °F - -29.9 °F 74% 30.43 in 10.0 mi Calm Calm - N/A   Clear
5:53 AM -27.0 °F - -32.1 °F 77% 30.45 in 10.0 mi Calm Calm - N/A   Clear
6:53 AM -25.1 °F - -29.9 °F 78% 30.40 in 10.0 mi Calm Calm - N/A   Clear
7:15 AM -25.6 °F - -31.0 °F 76% 30.36 in 0.5 mi Calm Calm - N/A   Haze
7:18 AM -27.4 °F - -32.8 °F 75% 30.36 in 2.0 mi Calm Calm - N/A   Haze
7:25 AM -25.6 °F - -32.8 °F 69% 30.35 in 10.0 mi Calm Calm - N/A   Clear
7:53 AM -23.1 °F - -27.0 °F 82% 30.42 in 10.0 mi Calm Calm - N/A   Clear
8:53 AM -11.9 °F - -18.0 °F 74% 30.42 in 10.0 mi Calm Calm - N/A   Clear
9:53 AM 1.9 °F - -4.0 °F 76% 30.44 in 10.0 mi Calm Calm - N/A   Clear
10:53 AM 10.9 °F 0.2 °F -2.0 °F 56% 30.42 in 10.0 mi SW 6.9 mph - N/A   Clear
11:53 AM 18.0 °F 7.7 °F 3.0 °F 52% 30.39 in 10.0 mi SW 8.1 mph - N/A   Clear
12:53 PM 21.0 °F 12.4 °F 1.9 °F 44% 30.34 in 10.0 mi South 6.9 mph - N/A   Clear
1:53 PM 25.0 °F 17.1 °F 3.0 °F 39% 30.32 in 10.0 mi South 6.9 mph - N/A   Clear
2:53 PM 28.0 °F 20.0 °F 1.9 °F 33% 30.29 in 10.0 mi South 8.1 mph - N/A   Clear
3:53 PM 28.9 °F 21.1 °F 1.0 °F 30% 30.27 in 10.0 mi South 8.1 mph - N/A   Clear
4:53 PM 25.0 °F 18.1 °F 7.0 °F 46% 30.27 in 10.0 mi SSE 5.8 mph - N/A   Clear
5:53 PM 21.0 °F 13.4 °F 5.0 °F 50% 30.26 in 10.0 mi South 5.8 mph - N/A   Clear
6:53 PM 10.0 °F - 1.9 °F 70% 30.27 in 10.0 mi Calm Calm - N/A   Clear
7:53 PM 6.1 °F - 3.0 °F 87% 30.27 in 10.0 mi Calm Calm - N/A   Clear
8:53 PM 1.0 °F - -4.0 °F 79% 30.27 in 10.0 mi Calm Calm - N/A   Clear
9:53 PM -0.9 °F - -4.0 °F 87% 30.26 in 10.0 mi Calm Calm - N/A   Clear
10:53 PM -2.9 °F - -8.0 °F 79% 30.25 in 10.0 mi Calm Calm - N/A   Clear
11:53 PM -2.9 °F - -6.0 °F 87% 30.25 in 10.0 mi Calm Calm - N/A   Clear